AirNav   Jet Aviation Boston
 
 555 users online  

KSPH Springhill Airport
Springhill, Louisiana, USA

GOING TO SPRINGHILL?


FAA INFORMATION EFFECTIVE 21 JUNE 2018

Location

FAA Identifier: SPH
Lat/Long: 32-59-01.4000N / 093-24-33.0000W
32-59.023333N / 093-24.550000W
32.9837222 / -93.4091667
(estimated)
Elevation: 217.6 ft. / 66.3 m (surveyed)
Variation: 02E (2010)
From city: 3 miles E of SPRINGHILL, LA
Time zone: UTC -5 (UTC -6 during Standard Time)
Zip code: 71075

Airport Operations

Airport use: Open to the public
Activation date: 01/1966
Control tower: no
ARTCC: FORT WORTH CENTER
FSS: DE RIDDER FLIGHT SERVICE STATION
NOTAMs facility: DRI (NOTAM-D service available)
Attendance: CONTINUOUS
Wind indicator: lighted
Segmented circle: no
Lights: MIRL RY 18/36, REIL RY 36 PRESET LOW INTST DUSK-DAWN; TO INCR INTST ACTVT - CTAF.
Beacon: white-green (lighted land airport)
Operates sunset to sunrise.

Airport Communications

CTAF/UNICOM: 122.8
SHREVEPORT APPROACH: 118.6
SHREVEPORT DEPARTURE: 118.6
WX AWOS-2 at AGO (18 nm NE): 118.05 (870-901-3532)
  • DURG HRS 0000-0600 APCH/DEP SVC IS PRVDD ON FREQS 121.4/381.6; OTHER TIMES PRIMARY APCH/DEP FREQS APPLY.

Nearby radio navigation aids

VOR radial/distance  VOR name  Freq  Var
EICr051/23.9BELCHER VORTAC117.4007E
EMGr008/36.2ELM GROVE VORTAC111.2007E
ELDr237/37.2EL DORADO VOR/DME115.5007E

 
NDB name  Hdg/Dist  Freq  Var  ID
ATLANTA096/39.934704EATA .- - .-

Airport Services

Fuel available: 100LL
FUEL NOT AVBL EXCEPT CASH
Parking: tiedowns
Airframe service: NONE
Powerplant service: NONE
Bottled oxygen: NONE
Bulk oxygen: NONE

Runway Information

Runway 18/36

Dimensions: 4202 x 75 ft. / 1281 x 23 m
Surface: asphalt, in fair condition
Runway edge lights: medium intensity
RUNWAY 18  RUNWAY 36
Latitude: 32-59.369873N32-58.677065N
Longitude: 093-24.551142W093-24.549622W
Elevation: 205.1 ft.217.5 ft.
Gradient: 0.3% UP
Traffic pattern: leftleft
Runway heading: 178 magnetic, 180 true358 magnetic, 360 true
Markings: nonprecision, in fair conditionnonprecision, in fair condition
Visual slope indicator: 2-light PAPI on left (3.50 degrees glide path)2-light PAPI on left (3.50 degrees glide path)
Runway end identifier lights: noyes
Touchdown point: yes, no lightsyes, no lights
Obstructions: 95 ft. trees, 2158 ft. from runway, 20:1 slope to clear80 ft. trees, 1339 ft. from runway, 89 ft. left of centerline, 14:1 slope to clear

Airport Ownership and Management from official FAA records

Ownership: Publicly-owned
Owner: CITY OF SPRINGHILL
MAYOR'S OFFICE, P.O. BOX 398
SPRINGHILL, LA 71075
Phone 318-539-5681
Manager: BOB GOODMAN
367 AIRPORT ROAD
SPRINGHILL, LA 71075
Phone 318-539-4568

Airport Operational Statistics

Aircraft based on the field: 10
Single engine airplanes: 8
Multi engine airplanes: 1
Ultralights: 1
    
Aircraft operations: avg 120/week *
60% local general aviation
40% transient general aviation
* for 12-month period ending 26 September 2017

Instrument Procedures

NOTE: All procedures below are presented as PDF files. If you need a reader for these files, you should download the free Adobe Reader.

NOT FOR NAVIGATION. Please procure official charts for flight.
FAA instrument procedures published for use from 21 June 2018 at 0901Z to 19 July 2018 at 0900Z.

 
IAPs - Instrument Approach Procedures
RNAV (GPS) RWY 36   download (229KB)
NOTE: Special Take-Off Minimums/Departure Procedures apply   download (201KB)

Other nearby airports with instrument procedures:

KAGO - Ralph C Weiser Field Airport (18 nm NE)
KMNE - Minden Airport (21 nm S)
3F4 - Vivian Airport (31 nm W)
KDTN - Shreveport Downtown Airport (32 nm SW)
KBAD - Barksdale Air Force Base (32 nm SW)
 
Loc | Ops | Rwys | IFR | FBO | Links
Com | Nav | Svcs | Stats | Notes


 
Area around KSPH (Springhill Airport)
 
Road maps at: MapQuest Bing Google
 
Aerial photo
WARNING: Photo may not be current or correct
Aerial photo of KSPH (Springhill Airport)
Photo by Dwayne Wilson
Photo taken 27-Sep-2014
looking northwest.

Do you have a better or more recent aerial photo of Springhill Airport that you would like to share? If so, please send us your photo.

 
Sectional chart

 
Airport distance calculator
Flying to Springhill Airport? Find the distance to fly.

From to KSPH

Sunrise and sunset
Times for 18-Jul-2018
 Local
(UTC-5)
 Zulu
(UTC)
Morning civil twilight05:5110:51
Sunrise06:1911:19
Sunset20:2101:21
Evening civil twilight20:4901:49

Current date and time
Zulu (UTC)  18-Jul-2018 05:29:48
Local (UTC-5)  18-Jul-2018 00:29:48
 
METAR
KMNE 
21nm S 
180515Z AUTO 00000KT 10SM CLR 27/22 A2999 RMK AO2 T02730217
KDTN 
31nm SW 
180453Z AUTO 18004KT 10SM CLR 32/21 A2997 RMK AO2 SLP146 T03170211
KBAD 
32nm SW 
180456Z AUTO 16004KT 6SM HZ CLR 28/21 A2997 RMK AO2 SLP150 T02840214
KELD 
33nm NE 
180453Z AUTO 03004KT 10SM CLR 27/27 A2999 RMK AO2 SLP150 T02670267
KSHV 
39nm SW 
180456Z 20005KT 10SM BKN280 29/21 A2997 RMK AO2 SLP144 T02940211
KTXK 
40nm NW 
180453Z AUTO 09003KT 10SM CLR 26/22 A2998 RMK AO2 SLP147 T02560217
TAF
KBAD 
32nm SW 
180200Z 1802/1908 21006KT 9999 SCT070 QNH2991INS BECMG 1815/1816 23009KT 9999 BKN080 QNH2985INS BECMG 1822/1823 19006KT 9999 SCT070 QNH2989INS TX36/1821Z TN25/1812Z
KELD 
33nm NE 
180158Z 1802/1824 06005KT P6SM VCSH BKN070 BKN090 TEMPO 1802/1803 33015G25KT 6SM -TSRA BKN050CB FM180900 VRB05KT P6SM VCTS SCT060CB BKN100 OVC250 FM181400 30004KT P6SM OVC250
KSHV 
39nm SW 
171720Z 1718/1818 30007KT P6SM FEW110 BKN130 OVC280 FM180000 27004KT P6SM BKN250 FM181200 26007KT P6SM BKN250
NOTAMs
Click for the latest NOTAMs
NOTAMs are issued by the DoD/FAA and will open in a separate window not controlled by AirNav.

 

 
 

FBO, Fuel Providers, and Aircraft Ground Support

  
 Business Name 
 
 Contact 
 
 Services / Description 
 
Fuel Prices
 
Comments
  
City of Springhill (FBO) 318-539-4568
no information available

If you are affiliated with City of Springhill (FBO) and would like to show here your services, contact info, web link, logo, and more, click here
no prices available
 
   write
Update Fuel Prices
 

Would you like to see your business listed on this page?

 If your business provides an interesting product or service to pilots, flight crews, aircraft, or users of the Springhill Airport, you should consider listing it here.  To start the listing process, click on the button below
 
Add a business
 

Other Pages about Springhill Airport

www.springhilllouisiana.com/airportindpark.htm
 
Update a link
 
Copyright © AirNav, LLC. All rights reserved. Privacy Policy  Contact